Content
SEND FEEDBACK

Daily
Averages
Monthly
Summary
United Kingdom

LONDON, ENGLAND


Home > Europe > United Kingdom > England
Elevation: 203 feet     Latitude: 51 09N     Longitude: 000 11W

WEATHER
 
SELECT A DAY
Number of Records: 293,019;   Date Range: 7/1/96 - 7/31/14
 
SHARE

PRINT THIS DATA

[ ← Previous Day ]
WEATHER ALMANAC - NOVEMBER 9, 2013
[ Next Day → ]
[ °C ]   °F
Weather ElementAverageHighLow
Temperature41.2 °F44.6 °F (11:50 am)35.6 °F (7:50 am)
Dewpoint39.7 °F44.6 °F (2:20 pm)35.6 °F (5:20 am)
Humidity94.1 %100 % (4:50 am)87 % (2:50 pm)
Barometer29.71 in29.80 in (2:50 am)29.62 in (2:20 pm)
Wind Speed4.1 mph8.1 mph (1:20 am)
Weather ElementAverage
Visibility4.7 mi
Wind DirectionSE (131.1 °)

Weather ElementTotal
Precipitation---
Heating Degree Days24.9 (Base 65)
Averaged from 47 records on November 9, 2013
WEATHER CONDITIONS BREAKOUT
WIND DIRECTION BREAKOUT
WEATHER BY HOUR - NOVEMBER 9, 2013
[ °C ]   °F
Local TimeTemperatureDewpointHumidityBarometerVisibilityWind DirectionWind SpeedGust SpeedPrecipitationEventsConditions
12:50 AM41.0 °F39.2 °F93 %29.77 inWSW (240°)6.9 mphClear
1:20 AM41.0 °F39.2 °F93 %29.77 inSW (230°)8.1 mphClear
1:50 AM41.0 °F39.2 °F93 %29.77 inSW (230°)6.9 mphClear
2:20 AM39.2 °F37.4 °F93 %29.77 inSW (220°)6.9 mphClear
2:50 AM39.2 °F37.4 °F93 %29.80 inSW (230°)5.8 mphClear
3:20 AM39.2 °F37.4 °F93 %29.80 inSW (230°)6.9 mphClear
3:50 AM39.2 °F37.4 °F93 %29.80 inSW (230°)5.8 mphClear
4:20 AM39.2 °F37.4 °F93 %29.80 inSW (220°)4.6 mphClear
4:50 AM37.4 °F37.4 °F100 %29.80 inSW (220°)4.6 mphClear
5:20 AM37.4 °F35.6 °F93 %29.80 in5.6 miVariable2.3 mph
5:50 AM37.4 °F35.6 °F93 %29.77 inSSW (210°)5.8 mphClear
6:20 AM37.4 °F35.6 °F93 %29.77 inSW (220°)3.5 mphClear
6:50 AM37.4 °F35.6 °F93 %29.77 inSSW (210°)2.3 mphClear
7:20 AM37.4 °F35.6 °F93 %29.77 inCalmClear
7:50 AM35.6 °F35.6 °F100 %29.77 inCalmClear
8:20 AM37.4 °F35.6 °F93 %29.77 inEast (90°)4.6 mphClear
8:50 AM39.2 °F37.4 °F93 %29.77 inEast (80°)2.3 mphClear
9:20 AM39.2 °F37.4 °F93 %29.74 inVariable3.5 mphClear
9:50 AM39.2 °F37.4 °F93 %29.74 in6.2 miEast (90°)3.5 mphRainLight Rain
10:20 AM39.2 °F39.2 °F100 %29.74 in5.0 miVariable2.3 mphRainLight Rain
10:50 AM41.0 °F41.0 °F100 %29.74 in4.3 miVariable2.3 mphRainLight Rain
11:20 AM42.8 °F41.0 °F93 %29.71 in5.0 miVariable3.5 mphRainLight Rain
11:50 AM44.6 °F42.8 °F93 %29.68 in5.0 miNNE (30°)5.8 mphRainLight Rain
12:20 PM44.6 °F42.8 °F93 %29.68 in6.2 miENE (70°)6.9 mphMostly Cloudy
12:50 PM42.8 °F42.8 °F100 %29.65 in4.3 miNE (50°)5.8 mphRainLight Rain
1:20 PM42.8 °F42.8 °F100 %29.65 in3.7 miENE (60°)6.9 mphRainLight Rain
1:50 PM44.6 °F42.8 °F93 %29.65 in4.3 miVariable3.5 mphRainLight Rain
2:20 PM44.6 °F44.6 °F100 %29.62 in6.2 miENE (70°)6.9 mphMostly Cloudy
2:50 PM44.6 °F41.0 °F87 %29.62 in6.2 miNE (50°)4.6 mphMostly Cloudy
3:20 PM44.6 °F41.0 °F87 %29.65 in6.2 miVariable2.3 mphMostly Cloudy
3:50 PM44.6 °F42.8 °F93 %29.65 in6.2 miWest (280°)4.6 mphMostly Cloudy
4:20 PM44.6 °F42.8 °F93 %29.65 in6.2 miWest (280°)4.6 mphMostly Cloudy
4:50 PM44.6 °F42.8 °F93 %29.65 in6.2 miWest (280°)3.5 mphMostly Cloudy
5:20 PM44.6 °F42.8 °F93 %29.65 in6.2 miWest (280°)4.6 mphMostly Cloudy
5:50 PM44.6 °F41.0 °F87 %29.68 in6.2 miWest (280°)8.1 mphMostly Cloudy
6:20 PM42.8 °F39.2 °F87 %29.68 in6.2 miVariable3.5 mphScattered Clouds
6:50 PM41.0 °F39.2 °F93 %29.68 inSSW (210°)4.6 mphClear
7:20 PM41.0 °F39.2 °F93 %29.68 in3.1 miSouth (180°)3.5 mphHaze
7:50 PM41.0 °F41.0 °F100 %29.68 in3.1 miSouth (190°)3.5 mphHaze
8:20 PM41.0 °F41.0 °F100 %29.65 in3.1 miSSW (200°)4.6 mphMist
8:50 PM41.0 °F41.0 °F100 %29.65 in3.1 miSouth (180°)3.5 mphMist
9:20 PM41.0 °F41.0 °F100 %29.65 in4.3 miVariable2.3 mphPartly Cloudy
9:50 PM42.8 °F41.0 °F93 %29.62 in3.1 miSouth (180°)2.3 mphMist
10:20 PM42.8 °F41.0 °F93 %29.62 in3.1 miCalmRainLight Rain
10:50 PM42.8 °F41.0 °F93 %29.62 in3.1 miCalmRainLight Rain
11:20 PM42.8 °F41.0 °F93 %29.62 in2.5 miNNW (340°)2.3 mphRainLight Rain
11:50 PM42.8 °F41.0 °F93 %29.62 in2.5 miCalmRainRain
Hourly data recorded from EGKK, located miles away from London, England







STORIES FROM OUR PARTNERS